Weather History for Ozona, TX

Change the Weather History Date:

Sunday, February 17, 2013

  Actual Average Record
Temperature  
Mean Temperature 52 °F -  
Max Temperature 68 °F 64 °F 73 °F (2014)
Min Temperature 35 °F 34 °F 35 °F (2013)
Degree Days  
Heating Degree Days 14    
Growing Degree Days 2 (Base 50)    
Moisture  
Dew Point 30 °F    
Average Humidity 45    
Maximum Humidity 70    
Minimum Humidity 18    
Precipitation  
Precipitation 0.00 in - - ()
Sea Level Pressure  
Sea Level Pressure 30.04 in    
Wind  
Wind Speed 10 mph (South)    
Max Wind Speed 24 mph    
Max Gust Speed 31 mph    
Visibility 10 miles    
Events      
Averages and records for this station are not official NWS values.
T = Trace of Precipitation, MM = Missing Value Source: NWS Daily Summary

Daily Weather History Graph

Daily Weather History Graph

Search for Another Location

Airport:

Trip Planner

Search our weather history database for the weather conditions in past years. The results will help you decide how hot, cold, wet, or windy it might be!

Date:

Astronomy

Feb. 17, 2013 Rise Set
Actual Time 7:23 AM CST 6:34 PM CST
Civil Twilight 6:58 AM CST 6:59 PM CST
Nautical Twilight 6:30 AM CST 7:27 PM CST
Astronomical Twilight 6:02 AM CST 7:55 PM CST
Moon 11:49 AM CST (2/17) 1:00 AM CST (2/17)
Length of Visible Light 12h 00m
Length of Day
11h 11m
Waxing Crescent, 49% of the Moon is Illuminated
Feb 17
Waxing Crescent
Feb 17
First Quarter
Feb 25
Full
Mar 4
Last Quarter
Mar 11
New

Hourly Weather History & Observations

Time (CST) Temp. Windchill Dew Point Humidity Pressure Visibility Wind Dir Wind Speed Gust Speed Precip Events Conditions
12:15 AM 42.8 °F 39.3 °F 23.0 °F 46% 30.19 in 10.0 mi SSW 5.8 mph - N/A   Clear
12:35 AM 41.0 °F 38.0 °F 23.0 °F 49% 30.18 in 10.0 mi SSW 4.6 mph - N/A   Clear
12:55 AM 41.0 °F 38.0 °F 23.0 °F 49% 30.17 in 10.0 mi SSW 4.6 mph - N/A   Clear
1:15 AM 42.8 °F 39.3 °F 23.0 °F 46% 30.17 in 10.0 mi SSW 5.8 mph - N/A   Clear
1:35 AM 41.0 °F 37.1 °F 23.0 °F 49% 30.17 in 10.0 mi SSW 5.8 mph - N/A   Clear
1:55 AM 41.0 °F 38.0 °F 24.8 °F 53% 30.16 in 10.0 mi South 4.6 mph - N/A   Clear
2:15 AM 41.0 °F 36.4 °F 24.8 °F 53% 30.16 in 10.0 mi SSW 6.9 mph - N/A   Clear
2:35 AM 41.0 °F 36.4 °F 24.8 °F 53% 30.16 in 10.0 mi SSW 6.9 mph - N/A   Clear
2:55 AM 41.0 °F 37.1 °F 24.8 °F 53% 30.15 in 10.0 mi SSW 5.8 mph - N/A   Clear
3:15 AM 39.2 °F 35.0 °F 24.8 °F 56% 30.15 in 10.0 mi SSW 5.8 mph - N/A   Clear
3:35 AM 39.2 °F 37.0 °F 24.8 °F 56% 30.14 in 10.0 mi SSW 3.5 mph - N/A   Clear
3:55 AM 35.6 °F 32.8 °F 24.8 °F 65% 30.14 in 10.0 mi SSW 3.5 mph - N/A   Clear
4:15 AM 37.4 °F 32.8 °F 24.8 °F 60% 30.13 in 10.0 mi SSW 5.8 mph - N/A   Clear
4:35 AM 37.4 °F 31.4 °F 24.8 °F 60% 30.13 in 10.0 mi South 8.1 mph - N/A   Clear
4:55 AM 37.4 °F 31.4 °F 24.8 °F 60% 30.13 in 10.0 mi South 8.1 mph - N/A   Clear
5:15 AM 37.4 °F 32.1 °F 26.6 °F 65% 30.12 in 10.0 mi South 6.9 mph - N/A   Clear
5:35 AM 37.4 °F 34.9 °F 26.6 °F 65% 30.12 in 10.0 mi South 3.5 mph - N/A   Clear
6:15 AM 35.6 °F 32.8 °F 26.6 °F 70% 30.12 in 10.0 mi South 3.5 mph - N/A   Clear
6:35 AM 35.6 °F 29.9 °F 26.6 °F 70% 30.12 in 10.0 mi South 6.9 mph - N/A   Clear
6:55 AM 35.6 °F 29.9 °F 24.8 °F 65% 30.11 in 10.0 mi South 6.9 mph - N/A   Clear
7:15 AM 35.6 °F 29.2 °F 26.6 °F 70% 30.12 in 10.0 mi South 8.1 mph - N/A   Clear
7:35 AM 37.4 °F 32.1 °F 26.6 °F 65% 30.11 in 10.0 mi South 6.9 mph - N/A   Clear
7:55 AM 39.2 °F 33.6 °F 26.6 °F 61% 30.11 in 10.0 mi South 8.1 mph - N/A   Clear
8:15 AM 42.8 °F 37.5 °F 26.6 °F 53% 30.12 in 10.0 mi South 9.2 mph - N/A   Clear
8:35 AM 42.8 °F 37.0 °F 26.6 °F 53% 30.13 in 10.0 mi South 10.4 mph - N/A   Clear
8:55 AM 46.4 °F 41.9 °F 26.6 °F 46% 30.13 in 10.0 mi SSW 9.2 mph - N/A   Clear
9:15 AM 48.2 °F - 26.6 °F 43% 30.13 in 10.0 mi South 15.0 mph - N/A   Clear
9:35 AM 50.0 °F - 26.6 °F 40% 30.13 in 10.0 mi South 13.8 mph - N/A   Clear
9:55 AM 51.8 °F - 28.4 °F 41% 30.13 in 10.0 mi South 15.0 mph - N/A   Clear
10:15 AM 55.4 °F - 28.4 °F 36% 30.13 in 10.0 mi SSW 12.7 mph - N/A   Clear
10:35 AM 57.2 °F - 28.4 °F 33% 30.13 in 10.0 mi South 13.8 mph 23.0 mph N/A   Clear
11:15 AM 60.8 °F - 26.6 °F 27% 30.11 in 10.0 mi South 19.6 mph 27.6 mph N/A   Clear
11:35 AM 62.6 °F - 26.6 °F 26% 30.10 in 10.0 mi South 24.2 mph 29.9 mph N/A   Clear
11:55 AM 62.6 °F - 28.4 °F 27% 30.09 in 10.0 mi South 21.9 mph 31.1 mph N/A   Clear
12:15 PM 62.6 °F - 28.4 °F 27% 30.08 in 10.0 mi South 19.6 mph 26.5 mph N/A   Clear
12:55 PM 64.4 °F - 28.4 °F 26% 30.05 in 10.0 mi South 19.6 mph 25.3 mph N/A   Clear
1:15 PM 64.4 °F - 28.4 °F 26% 30.03 in 10.0 mi SSE 21.9 mph 26.5 mph N/A   Clear
1:35 PM 66.2 °F - 26.6 °F 23% 30.02 in 10.0 mi South 17.3 mph 26.5 mph N/A   Clear
1:55 PM 66.2 °F - 26.6 °F 23% 30.00 in 10.0 mi South 20.7 mph 28.8 mph N/A   Clear
2:15 PM 66.2 °F - 23.0 °F 19% 29.99 in 10.0 mi South 20.7 mph 26.5 mph N/A   Clear
2:35 PM 66.2 °F - 23.0 °F 19% 29.98 in 10.0 mi SSW 19.6 mph 28.8 mph N/A   Clear
2:55 PM 68.0 °F - 24.8 °F 20% 29.96 in 10.0 mi South 23.0 mph 28.8 mph N/A   Clear
3:15 PM 68.0 °F - 23.0 °F 18% 29.96 in 10.0 mi South 19.6 mph 27.6 mph N/A   Clear
3:35 PM 68.0 °F - 26.6 °F 21% 29.94 in 10.0 mi South 19.6 mph 26.5 mph N/A   Clear
3:55 PM 68.0 °F - 24.8 °F 20% 29.93 in 10.0 mi South 23.0 mph 28.8 mph N/A   Clear
4:15 PM 68.0 °F - 28.4 °F 23% 29.93 in 10.0 mi South 21.9 mph 27.6 mph N/A   Clear
4:35 PM 68.0 °F - 30.2 °F 24% 29.92 in 10.0 mi South 20.7 mph 28.8 mph N/A   Clear
4:55 PM 68.0 °F - 30.2 °F 24% 29.92 in 10.0 mi South 17.3 mph 26.5 mph N/A   Clear
5:15 PM 66.2 °F - 30.2 °F 26% 29.91 in 10.0 mi South 17.3 mph 26.5 mph N/A   Clear
5:35 PM 64.4 °F - 32.0 °F 30% 29.91 in 10.0 mi South 16.1 mph 25.3 mph N/A   Clear
5:55 PM 64.4 °F - 32.0 °F 30% 29.91 in 10.0 mi South 18.4 mph 27.6 mph N/A   Clear
6:15 PM 62.6 °F - 33.8 °F 34% 29.91 in 10.0 mi South 17.3 mph 21.9 mph N/A   Clear
6:35 PM 62.6 °F - 33.8 °F 34% 29.92 in 10.0 mi South 11.5 mph - N/A   Clear
6:55 PM 60.8 °F - 35.6 °F 39% 29.92 in 10.0 mi South 8.1 mph - N/A   Clear
7:15 PM 60.8 °F - 37.4 °F 42% 29.92 in 10.0 mi South 11.5 mph - N/A   Clear
7:35 PM 60.8 °F - 37.4 °F 42% 29.92 in 10.0 mi South 13.8 mph 20.7 mph N/A   Clear
7:55 PM 59.0 °F - 37.4 °F 45% 29.92 in 10.0 mi South 12.7 mph 20.7 mph N/A   Clear
8:15 PM 59.0 °F - 39.2 °F 48% 29.92 in 10.0 mi South 9.2 mph - N/A   Clear
8:35 PM 59.0 °F - 41.0 °F 51% 29.91 in 10.0 mi South 11.5 mph 18.4 mph N/A   Clear
8:55 PM 59.0 °F - 41.0 °F 51% 29.91 in 10.0 mi South 10.4 mph 19.6 mph N/A   Clear
9:15 PM 57.2 °F - 41.0 °F 55% 29.91 in 10.0 mi South 13.8 mph 20.7 mph N/A   Clear
9:35 PM 57.2 °F - 42.8 °F 59% 29.92 in 10.0 mi South 12.7 mph 19.6 mph N/A   Clear
9:55 PM 57.2 °F - 42.8 °F 59% 29.92 in 10.0 mi South 15.0 mph 20.7 mph N/A   Clear
10:15 PM 55.4 °F - 42.8 °F 63% 29.92 in 10.0 mi South 11.5 mph 20.7 mph N/A   Clear
10:35 PM 55.4 °F - 42.8 °F 63% 29.91 in 10.0 mi South 13.8 mph 20.7 mph N/A   Clear
10:55 PM 55.4 °F - 44.6 °F 67% 29.91 in 10.0 mi South 15.0 mph 20.7 mph N/A   Clear
11:15 PM 55.4 °F - 44.6 °F 67% 29.91 in 10.0 mi South 18.4 mph 24.2 mph N/A   Clear
11:35 PM 55.4 °F - 44.6 °F 67% 29.89 in 10.0 mi South 19.6 mph 25.3 mph N/A   Clear
11:55 PM 55.4 °F - 44.6 °F 67% 29.89 in 10.0 mi South 17.3 mph 23.0 mph N/A   Clear